Location: Quebec
(46.8000°N, 71.2500°W)
Time: 00:41:07
(UTC-04:00)

N. Korean satellite - Pass Details

Date: 09 October 2017
Orbit: 459 x 517 km, 97.2° (Epoch: 20 October)

Event Time Altitude Azimuth Distance (km) Brightness Sun altitude
Rises 19:47:46 0° 208° (SSW) 2,567 10.5 -17.7°
Reaches altitude 10° 19:50:35 10° 232° (SW) 1,678 9.9 -18.2°
Maximum altitude 19:52:43 15° 269° (W) 1,391 9.9 -18.6°
Drops below altitude 10° 19:54:51 10° 305° (NW) 1,667 10.3 -18.9°
Sets 19:57:38 0° 330° (NNW) 2,540 10.8 -19.4°
